• In Netherlands
  • List of Countries
  • For 7 days
  • Water Temperature
  • Satellite Maps
  • Weather Map
  • Weather Widgets
  • user-avatar
    Login

    Hourly Weather Porto-Novo

    Today, 21 September, Thursday

    Time Temperature Precipitation Wind Pressure Humidity
    00:00 +27°C° 0 mm 3 mps 758 mmHg 87%
    01:00 +27°C° 0 mm 3 mps 758 mmHg 87%
    02:00 +26°C° 0 mm 3 mps 758 mmHg 88%
    03:00 +26°C° 0 mm 3 mps 758 mmHg 89%
    04:00 +26°C° 0 mm 3 mps 758 mmHg 89%
    05:00 +26°C° 0 mm 3 mps 758 mmHg 89%
    06:00 +26°C° 0 mm 3 mps 759 mmHg 90%
    07:00 +28°C° 0.2 mm 4 mps 759 mmHg 82%
    08:00 +29°C° 0.2 mm 4 mps 759 mmHg 74%
    09:00 +32°C° 0.2 mm 4 mps 759 mmHg 66%
    10:00 +33°C° 0.2 mm 5 mps 759 mmHg 62%
    11:00 +34°C° 0.2 mm 5 mps 758 mmHg 57%
    12:00 +35°C° 0.2 mm 5 mps 758 mmHg 53%
    13:00 +35°C° 0.4 mm 6 mps 757 mmHg 54%
    14:00 +34°C° 0.4 mm 6 mps 756 mmHg 55%
    15:00 +34°C° 0.4 mm 6 mps 756 mmHg 56%
    16:00 +32°C° 0.1 mm 5 mps 756 mmHg 61%
    17:00 +30°C° 0.1 mm 5 mps 757 mmHg 66%
    18:00 +29°C° 0.1 mm 4 mps 757 mmHg 71%
    19:00 +28°C° 0.2 mm 4 mps 758 mmHg 73%
    20:00 +28°C° 0.2 mm 4 mps 758 mmHg 76%
    21:00 +28°C° 0.2 mm 4 mps 759 mmHg 78%
    22:00 +28°C° 0.2 mm 4 mps 759 mmHg 80%
    23:00 +27°C° 0.2 mm 3 mps 759 mmHg 81%

    Tomorrow, 22 September, Friday

    Time Temperature Precipitation Wind Pressure Humidity
    00:00 +27°C° 0.2 mm 3 mps 759 mmHg 83%
    01:00 +27°C° 0.2 mm 3 mps 758 mmHg 84%
    02:00 +27°C° 0.2 mm 3 mps 758 mmHg 85%
    03:00 +27°C° 0.2 mm 3 mps 758 mmHg 86%
    04:00 +27°C° 0.2 mm 3 mps 758 mmHg 86%
    05:00 +26°C° 0.2 mm 3 mps 758 mmHg 86%
    06:00 +26°C° 0.2 mm 4 mps 759 mmHg 87%
    07:00 +27°C° 0.1 mm 4 mps 759 mmHg 82%
    08:00 +29°C° 0.1 mm 4 mps 760 mmHg 77%
    09:00 +30°C° 0.1 mm 4 mps 760 mmHg 72%
    10:00 +30°C° 0.2 mm 4 mps 760 mmHg 68%
    11:00 +32°C° 0.2 mm 4 mps 759 mmHg 65%
    12:00 +33°C° 0.2 mm 4 mps 759 mmHg 61%
    13:00 +33°C° 0.4 mm 4 mps 758 mmHg 61%
    14:00 +33°C° 0.4 mm 4 mps 758 mmHg 61%
    15:00 +33°C° 0.4 mm 4 mps 757 mmHg 62%
    16:00 +30°C° 0 mm 4 mps 757 mmHg 66%
    17:00 +29°C° 0 mm 4 mps 758 mmHg 71%
    18:00 +28°C° 0 mm 4 mps 758 mmHg 76%
    19:00 +28°C° 0 mm 4 mps 758 mmHg 77%
    20:00 +28°C° 0 mm 4 mps 759 mmHg 78%
    21:00 +27°C° 0 mm 4 mps 759 mmHg 79%
    22:00 +27°C° 0 mm 4 mps 759 mmHg 80%
    23:00 +27°C° 0 mm 4 mps 759 mmHg 81%

    Day after tomorrow, 23 September, Saturday

    Time Temperature Precipitation Wind Pressure Humidity
    00:00 +27°C° 0 mm 4 mps 759 mmHg 81%
    01:00 +27°C° 0 mm 3 mps 759 mmHg 82%
    02:00 +26°C° 0 mm 3 mps 759 mmHg 83%
    03:00 +26°C° 0 mm 3 mps 759 mmHg 83%
    04:00 +26°C° 0 mm 2 mps 759 mmHg 84%
    05:00 +26°C° 0 mm 2 mps 760 mmHg 84%
    06:00 +26°C° 0 mm 2 mps 760 mmHg 84%
    07:00 +27°C° 0.1 mm 2 mps 760 mmHg 78%
    08:00 +29°C° 0.1 mm 3 mps 761 mmHg 72%
    09:00 +30°C° 0.1 mm 3 mps 761 mmHg 66%
    10:00 +30°C° 0.3 mm 3 mps 761 mmHg 66%
    11:00 +30°C° 0.3 mm 3 mps 760 mmHg 65%
    12:00 +30°C° 0.3 mm 4 mps 760 mmHg 65%
    13:00 +32°C° 0.1 mm 4 mps 759 mmHg 64%
    14:00 +32°C° 0.1 mm 4 mps 758 mmHg 62%
    15:00 +32°C° 0.1 mm 4 mps 757 mmHg 61%
    16:00 +30°C° 0 mm 4 mps 758 mmHg 65%
    17:00 +29°C° 0 mm 4 mps 758 mmHg 69%
    18:00 +28°C° 0 mm 3 mps 758 mmHg 73%
    19:00 +28°C° 0 mm 3 mps 759 mmHg 75%
    20:00 +27°C° 0 mm 3 mps 759 mmHg 77%
    21:00 +27°C° 0 mm 3 mps 760 mmHg 79%
    22:00 +27°C° 0 mm 3 mps 760 mmHg 80%
    23:00 +27°C° 0 mm 3 mps 760 mmHg 81%

    24 September, Sunday

    Time Temperature Precipitation Wind Pressure Humidity
    00:00 +26°C° 0 mm 3 mps 760 mmHg 83%
    01:00 +26°C° 0.1 mm 3 mps 759 mmHg 84%
    02:00 +26°C° 0.1 mm 2 mps 759 mmHg 86%
    03:00 +26°C° 0.1 mm 2 mps 759 mmHg 87%
    04:00 +26°C° 0.1 mm 2 mps 759 mmHg 88%
    05:00 +25°C° 0.1 mm 2 mps 759 mmHg 89%
    06:00 +25°C° 0.1 mm 2 mps 759 mmHg 90%
    07:00 +27°C° 0 mm 3 mps 760 mmHg 82%
    08:00 +29°C° 0 mm 3 mps 760 mmHg 75%
    09:00 +31°C° 0 mm 3 mps 760 mmHg 68%
    10:00 +33°C° 0 mm 3 mps 759 mmHg 62%
    11:00 +35°C° 0 mm 3 mps 759 mmHg 57%
    12:00 +36°C° 0 mm 3 mps 758 mmHg 51%
    13:00 +36°C° 0 mm 3 mps 757 mmHg 54%
    14:00 +35°C° 0 mm 4 mps 757 mmHg 57%
    15:00 +34°C° 0 mm 4 mps 756 mmHg 59%
    16:00 +33°C° 0.2 mm 4 mps 757 mmHg 66%
    17:00 +30°C° 0.2 mm 4 mps 757 mmHg 73%
    18:00 +29°C° 0.2 mm 3 mps 757 mmHg 80%
    19:00 +28°C° 0 mm 3 mps 758 mmHg 82%
    20:00 +28°C° 0 mm 3 mps 758 mmHg 84%
    21:00 +27°C° 0 mm 3 mps 759 mmHg 86%
    22:00 +27°C° 0 mm 3 mps 758 mmHg 88%
    23:00 +27°C° 0 mm 3 mps 758 mmHg 89%

    25 September, Monday

    Time Temperature Precipitation Wind Pressure Humidity
    00:00 +27°C° 0 mm 3 mps 757 mmHg 90%
    01:00 +27°C° 0.1 mm 3 mps 757 mmHg 90%
    02:00 +27°C° 0.1 mm 3 mps 757 mmHg 89%
    03:00 +27°C° 0.1 mm 3 mps 757 mmHg 89%
    04:00 +27°C° 0.1 mm 3 mps 757 mmHg 89%
    05:00 +27°C° 0.1 mm 3 mps 758 mmHg 89%
    06:00 +27°C° 0.1 mm 3 mps 758 mmHg 89%
    07:00 +27°C° 0.1 mm 3 mps 759 mmHg 86%
    08:00 +28°C° 0.1 mm 3 mps 759 mmHg 82%
    09:00 +29°C° 0.1 mm 4 mps 759 mmHg 79%
    10:00 +29°C° 0.6 mm 4 mps 759 mmHg 78%
    11:00 +30°C° 0.6 mm 4 mps 758 mmHg 76%
    12:00 +30°C° 0.6 mm 4 mps 757 mmHg 74%
    13:00 +30°C° 2 mm 4 mps 757 mmHg 75%
    14:00 +30°C° 2 mm 4 mps 757 mmHg 76%
    15:00 +30°C° 2 mm 4 mps 756 mmHg 76%
    16:00 +29°C° 0.3 mm 4 mps 756 mmHg 79%
    17:00 +28°C° 0.3 mm 4 mps 757 mmHg 81%
    18:00 +28°C° 0.3 mm 4 mps 757 mmHg 84%
    19:00 +28°C° 0 mm 4 mps 757 mmHg 85%
    20:00 +27°C° 0 mm 4 mps 758 mmHg 85%
    21:00 +27°C° 0 mm 4 mps 758 mmHg 86%
    22:00 +27°C° 0 mm 3 mps 758 mmHg 87%
    23:00 +27°C° 0 mm 3 mps 758 mmHg 88%

    26 September, Tuesday

    Time Temperature Precipitation Wind Pressure Humidity
    00:00 +26°C° 0 mm 3 mps 757 mmHg 89%
    01:00 +26°C° 0.1 mm 3 mps 757 mmHg 90%
    02:00 +26°C° 0.1 mm 3 mps 757 mmHg 90%
    03:00 +26°C° 0.1 mm 3 mps 757 mmHg 90%
    04:00 +26°C° 0 mm 3 mps 757 mmHg 91%
    05:00 +26°C° 0 mm 3 mps 758 mmHg 91%
    06:00 +26°C° 0 mm 3 mps 758 mmHg 91%
    07:00 +27°C° 0 mm 3 mps 758 mmHg 86%
    08:00 +28°C° 0 mm 4 mps 758 mmHg 81%
    09:00 +29°C° 0 mm 4 mps 759 mmHg 76%
    10:00 +30°C° 0 mm 4 mps 758 mmHg 71%
    11:00 +32°C° 0 mm 5 mps 757 mmHg 67%
    12:00 +33°C° 0 mm 5 mps 757 mmHg 63%
    13:00 +33°C° 0 mm 5 mps 756 mmHg 64%
    14:00 +33°C° 0 mm 5 mps 756 mmHg 66%
    15:00 +32°C° 0 mm 5 mps 755 mmHg 67%
    16:00 +30°C° 0 mm 5 mps 755 mmHg 72%
    17:00 +29°C° 0 mm 5 mps 756 mmHg 76%
    18:00 +28°C° 0 mm 4 mps 756 mmHg 81%
    19:00 +28°C° 0 mm 4 mps 756 mmHg 82%
    20:00 +28°C° 0 mm 4 mps 757 mmHg 84%
    21:00 +27°C° 0 mm 4 mps 758 mmHg 85%
    22:00 +27°C° 0 mm 4 mps 758 mmHg 86%
    23:00 +27°C° 0 mm 4 mps 757 mmHg 86%
    Show more